Погода в Поломе

Россия / Кировская область     57°54′57″N   51°12′15″E
темп.,
°C
ветер,
м/с
пор.,
м/с
влажн.,
%
обл.,
%
осадки,
мм/ч
давл.,
гПа
погр.,
м
11 апреля, вс
вс1100:00+1в11100100 0.5 102628
03:00+1с12100100 0.6 102743
06:00+1ссз11100100 0.1 102744
09:00+1ссз23100100 0.1 102890
12:00+3зсз24100100 0.1 1029126
15:00+2з34100100 0.1 1031207
18:00+1з24100100 0.0 103398
21:000зюз2499100 0.0 103484
12 апреля, пн
пн1200:00+1з24100100 0.0 1035122
03:00+1зсз24100100 0.0 1037134
06:00+1ссз12100100 0.0 1039104
09:00+2всв12100100 0.0 1040175
12:00+4в119599 0.0 1040270
15:00+6св118651 0.0 1040312
18:00+4в2290100 0.0 104012
21:00+2вюв3388100 0.0 104030
13 апреля, вт
вт1300:00+2юв3488100 0.0 103953
03:00+2ююв348894 0.0 103951
06:00+2ююв3791100 0.0 1038134
09:00+8ю5876100 0.0 1037329
12:00+12ю5768100 0.0 1034554
15:00+14ююз587154 0.0 1033681
18:00+11ююз488597 0.0 1032152
21:00+9ююз4991100 0.0 1031166
14 апреля, ср
ср1400:00+8ююз4991100 0.0 1031145
03:00+6юз379083 0.0 1030106
06:00+6ююз478386 0.0 1030138
09:00+12юз575829 0.0 1029362
12:00+15юз674654 0.0 1027944
15:00+16юз674139 0.0 10261229
18:00+13ююз475912 0.0 1025129
21:00+9юз497483 0.0 1025125
15 апреля, чт
чт1500:00+8юз49795 0.0 1024131
03:00+6юз477711 0.0 102398
06:00+6ююз377394 0.0 1023133
09:00+12юз465396 0.0 1021366
12:00+15юз5642100 0.0 1020929
15:00+16зюз5639100 0.0 10181342
18:00+13юз345687 0.0 101751
21:00+10юз3464100 0.0 101643